Winona, MN

2:55 PM CDT on September 21, 2017 (GMT -0500)
Winona Municipal-Conrad

Weather History for KONA - May, 2013

Change the Weather History Date:

Thursday, May 9, 2013

  Actual Average Record
Temperature  
Mean Temperature 55 °F -  
Max Temperature 60 °F 72 °F 84 °F (1970)
Min Temperature 50 °F 50 °F 35 °F (1999)
Degree Days  
Heating Degree Days 10    
Growing Degree Days 5 (Base 50)    
Moisture  
Dew Point 53 °F    
Average Humidity 89    
Maximum Humidity 94    
Minimum Humidity 72    
Precipitation  
Precipitation 1.05 in - - ()
Sea Level Pressure  
Sea Level Pressure 29.96 in    
Wind  
Wind Speed 3 mph (North)    
Max Wind Speed 15 mph    
Max Gust Speed 20 mph    
Visibility 6 miles    
Events Rain    
Averages and records for this station are not official NWS values.
T = Trace of Precipitation, MM = Missing Value Source: NWS Daily Summary

Daily Weather History Graph

Daily Weather History Graph

Search for Another Location

Airport or City:

Trip Planner

Search our weather history database for the weather conditions in past years. The results will help you decide how hot, cold, wet, or windy it might be!

Date:

Astronomy

May. 09, 2013 Rise Set
Actual Time 5:47 AM CDT 8:20 PM CDT
Civil Twilight 5:14 AM CDT 8:52 PM CDT
Nautical Twilight 4:33 AM CDT 9:34 PM CDT
Astronomical Twilight 3:47 AM CDT 10:20 PM CDT
Moon 5:33 AM CDT (5/9) 8:15 PM CDT (5/9)
Length of Visible Light 15h 38m
Length of Day
14h 32m
Waning Crescent, 0% of the Moon is Illuminated
May 9
Waning Crescent
May 9
New
May 17
First Quarter
May 24
Full
May 31
Last Quarter

Hourly Weather History & Observations

Time (CDT) Temp. Dew Point Humidity Pressure Visibility Wind Dir Wind Speed Gust Speed Precip Events Conditions
12:16 AM 60.8 °F 51.8 °F 72% 29.99 in 10.0 mi WNW 3.5 mph - N/A   Mostly Cloudy
12:36 AM 60.8 °F 51.8 °F 72% 29.98 in 10.0 mi Calm Calm - N/A   Scattered Clouds
12:56 AM 60.8 °F 51.8 °F 72% 29.98 in 10.0 mi Calm Calm - N/A   Scattered Clouds
1:16 AM 59.0 °F 51.8 °F 77% 29.98 in 10.0 mi Calm Calm - N/A   Mostly Cloudy
1:36 AM 59.0 °F 53.6 °F 82% 29.98 in 10.0 mi Calm Calm - N/A   Overcast
1:56 AM 59.0 °F 53.6 °F 82% 29.98 in 10.0 mi Calm Calm - N/A Rain Light Rain
2:16 AM 59.0 °F 53.6 °F 82% 29.97 in 10.0 mi North 3.5 mph - N/A Rain Light Rain
2:36 AM 59.0 °F 55.4 °F 88% 29.97 in 10.0 mi Calm Calm - N/A Rain Light Rain
2:56 AM 59.0 °F 55.4 °F 88% 29.97 in 4.0 mi Calm Calm - 0.01 in Rain Rain
3:15 AM 59.0 °F 55.4 °F 88% 29.96 in 5.0 mi NW 5.8 mph - 0.04 in Rain Rain
3:36 AM 57.2 °F 53.6 °F 88% 29.95 in 10.0 mi NW 4.6 mph - 0.04 in   Light Drizzle
3:56 AM 57.2 °F 55.4 °F 94% 29.94 in 10.0 mi NNW 4.6 mph - N/A   Overcast
4:16 AM 59.0 °F 55.4 °F 88% 29.94 in 10.0 mi Calm Calm - N/A   Overcast
4:36 AM 59.0 °F 55.4 °F 88% 29.94 in 10.0 mi Calm Calm - N/A   Overcast
4:56 AM 59.0 °F 55.4 °F 88% 29.94 in 7.0 mi Calm Calm - 0.01 in Rain Light Rain
5:16 AM 59.0 °F 55.4 °F 88% 29.94 in 7.0 mi Calm Calm - 0.01 in Rain Rain
5:36 AM 59.0 °F 55.4 °F 88% 29.94 in 7.0 mi Calm Calm - 0.01 in Rain Light Rain
5:56 AM 57.2 °F 53.6 °F 88% 29.94 in 5.0 mi Calm Calm - N/A   Overcast
6:16 AM 57.2 °F 53.6 °F 88% 29.95 in 4.0 mi Calm Calm - N/A   Drizzle
6:36 AM 57.2 °F 55.4 °F 94% 29.95 in 5.0 mi Calm Calm - N/A Rain Rain
6:56 AM 59.0 °F 55.4 °F 88% 29.95 in 4.0 mi Calm Calm - N/A Rain Light Rain
7:16 AM 59.0 °F 55.4 °F 88% 29.95 in 2.5 mi Calm Calm - 0.02 in Rain Rain
7:36 AM 57.2 °F 55.4 °F 94% 29.95 in 1.2 mi Calm Calm - 0.03 in Rain Light Rain
7:56 AM 59.0 °F 55.4 °F 88% 29.95 in 2.5 mi Calm Calm - N/A   Overcast
8:16 AM 59.0 °F 55.4 °F 88% 29.95 in 4.0 mi Calm Calm - N/A   Overcast
8:36 AM 59.0 °F 55.4 °F 88% 29.95 in 4.0 mi SE 3.5 mph - N/A Rain Light Rain
8:56 AM 59.0 °F 55.4 °F 88% 29.95 in 1.5 mi ESE 3.5 mph - N/A Rain Rain
9:16 AM 59.0 °F 55.4 °F 88% 29.95 in 4.0 mi ESE 3.5 mph - 0.03 in Rain Light Rain
9:36 AM 59.0 °F 55.4 °F 88% 29.95 in 2.0 mi Calm Calm - 0.07 in Rain Rain
9:56 AM 59.0 °F 55.4 °F 88% 29.95 in 2.0 mi Calm Calm - N/A Rain Light Rain
10:36 AM 59.0 °F 55.4 °F 88% 29.96 in 2.5 mi ESE 4.6 mph - 0.06 in Rain Rain
10:56 AM 59.0 °F 55.4 °F 88% 29.96 in 1.0 mi Calm Calm - 0.01 in Rain Heavy Rain
11:16 AM 59.0 °F 55.4 °F 88% 29.96 in 0.8 mi Calm Calm - 0.15 in Rain Heavy Rain
11:36 AM 59.0 °F 55.4 °F 88% 29.96 in 1.0 mi Calm Calm - 0.27 in Rain Rain
12:16 PM 59.0 °F 57.2 °F 94% 29.95 in 2.0 mi Calm Calm - 0.04 in Rain Rain
12:36 PM 59.0 °F 55.4 °F 88% 29.95 in 2.5 mi Calm Calm - 0.09 in Rain Rain
12:56 PM 59.0 °F 55.4 °F 88% 29.94 in 2.5 mi NNW 5.8 mph - N/A Rain Rain
1:16 PM 57.2 °F 55.4 °F 94% 29.94 in 2.0 mi NNW 5.8 mph - 0.05 in Rain Rain
1:36 PM 55.4 °F 53.6 °F 94% 29.94 in 2.0 mi NNW 5.8 mph - 0.14 in Rain Rain
1:56 PM 55.4 °F 53.6 °F 94% 29.94 in 3.0 mi NNW 4.6 mph - N/A Rain Rain
2:16 PM 55.4 °F 53.6 °F 94% 29.94 in 2.5 mi Calm Calm - 0.07 in Rain Rain
2:36 PM 55.4 °F 53.6 °F 94% 29.94 in 4.0 mi Calm Calm - 0.11 in Rain Rain
2:56 PM 55.4 °F 53.6 °F 94% 29.94 in 2.5 mi NNW 3.5 mph - N/A Rain Rain
3:16 PM 55.4 °F 53.6 °F 94% 29.94 in 4.0 mi NNW 5.8 mph - 0.03 in Rain Rain
3:36 PM 55.4 °F 53.6 °F 94% 29.94 in 3.0 mi NNW 3.5 mph - 0.07 in Rain Rain
3:56 PM 55.4 °F 53.6 °F 94% 29.94 in 3.0 mi North 3.5 mph - N/A Rain Rain
4:16 PM 55.4 °F 51.8 °F 88% 29.94 in 4.0 mi NW 6.9 mph - 0.04 in Rain Rain
4:36 PM 53.6 °F 51.8 °F 94% 29.94 in 5.0 mi NNW 6.9 mph - 0.07 in Rain Light Rain
4:56 PM 53.6 °F 51.8 °F 94% 29.94 in 4.0 mi NW 4.6 mph - N/A Rain Rain
5:16 PM 53.6 °F 51.8 °F 94% 29.94 in 7.0 mi NW 4.6 mph - 0.02 in Rain Light Rain
5:36 PM 53.6 °F 51.8 °F 94% 29.94 in 10.0 mi NNW 9.2 mph - 0.04 in Rain Light Rain
5:56 PM 53.6 °F 51.8 °F 94% 29.94 in 10.0 mi NNW 8.1 mph - 0.01 in Rain Light Rain
6:16 PM 53.6 °F 51.8 °F 94% 29.94 in 10.0 mi NW 9.2 mph - 0.02 in Rain Rain
6:36 PM 53.6 °F 51.8 °F 94% 29.95 in 7.0 mi NW 6.9 mph - 0.03 in Rain Light Rain
6:56 PM 53.6 °F 51.8 °F 94% 29.94 in 10.0 mi WNW 8.1 mph - N/A   Light Drizzle
7:16 PM 53.6 °F 51.8 °F 94% 29.95 in 10.0 mi NW 9.2 mph - N/A   Overcast
7:36 PM 53.6 °F 51.8 °F 94% 29.95 in 10.0 mi NW 6.9 mph - N/A   Overcast
7:56 PM 53.6 °F 51.8 °F 94% 29.96 in 10.0 mi North 5.8 mph 16.1 mph N/A   Light Drizzle
8:16 PM 53.6 °F 50.0 °F 88% 29.97 in 10.0 mi NNE 11.5 mph 19.6 mph N/A   Overcast
8:36 PM 53.6 °F 50.0 °F 88% 29.97 in 10.0 mi NE 15.0 mph 19.6 mph N/A   Overcast
8:56 PM 53.6 °F 50.0 °F 88% 29.98 in 10.0 mi NNE 11.5 mph 19.6 mph N/A   Overcast
9:16 PM 53.6 °F 50.0 °F 88% 29.98 in 10.0 mi NE 9.2 mph 18.4 mph N/A   Overcast
9:36 PM 53.6 °F 50.0 °F 88% 29.99 in 10.0 mi NE 10.4 mph - N/A   Overcast
9:56 PM 53.6 °F 50.0 °F 88% 29.99 in 10.0 mi NE 8.1 mph 17.3 mph N/A   Overcast
10:16 PM 51.8 °F 46.4 °F 82% 29.99 in 10.0 mi NE 8.1 mph 17.3 mph N/A   Overcast
10:56 PM 51.8 °F 46.4 °F 82% 29.99 in 10.0 mi NNE 8.1 mph - N/A   Overcast
11:16 PM 51.8 °F 46.4 °F 82% 29.99 in 10.0 mi NNE 8.1 mph - N/A   Overcast
11:36 PM 50.0 °F 44.6 °F 82% 30.00 in 10.0 mi NNE 8.1 mph 18.4 mph N/A   Overcast
11:56 PM 50.0 °F 44.6 °F 82% 30.00 in 10.0 mi NNE 13.8 mph 18.4 mph N/A   Overcast